Weather History for Yoho Park, BC

Change the Weather History Date:

Thursday, December 5, 2013

  Actual Average Record
Temperature  
Mean Temperature -19 °F -  
Max Temperature -9 °F - - ()
Min Temperature -29 °F - - ()
Degree Days  
Heating Degree Days 84    
Moisture  
Dew Point -26 °F    
Average Humidity 73    
Maximum Humidity 83    
Minimum Humidity 58    
Precipitation  
Precipitation 0.00 in - - ()
Sea Level Pressure  
Sea Level Pressure 30.50 in    
Wind  
Wind Speed 2 mph ()    
Max Wind Speed 8 mph    
Max Gust Speed -    
T = Trace of Precipitation, MM = Missing Value Source: Averaged Metar Reports

Daily Weather History Graph

Daily Weather History Graph

Search for Another Location

Airport:

Trip Planner

Search our weather history database for the weather conditions in past years. The results will help you decide how hot, cold, wet, or windy it might be!

Date:

Astronomy

Dec. 05, 2013 Rise Set
Actual Time 8:34 AM MST 4:37 PM MST
Civil Twilight 7:54 AM MST 5:17 PM MST
Nautical Twilight 7:12 AM MST 5:59 PM MST
Astronomical Twilight 6:31 AM MST 6:40 PM MST
Moon 10:47 AM MST (12/5) 8:16 PM MST (12/5)
Length of Visible Light 9h 22m
Length of Day
8h 03m
Waxing Crescent, 11% of the Moon is Illuminated
Dec 5
Waxing Crescent
Dec 9
First Quarter
Dec 17
Full
Dec 25
Last Quarter
Jan 1
New

Hourly Weather History & Observations

Time (MST) Temp. Windchill Dew Point Humidity Pressure Visibility Wind Dir Wind Speed Gust Speed Precip Events Conditions
12:00 AM -23.3 °F - -28.5 °F 77% 30.43 in - East 2.3 mph - N/A   Unknown
1:00 AM -25.8 °F -37.3 °F -31.7 °F 73% 30.43 in - East 3.5 mph - N/A   Unknown
2:00 AM -26.1 °F - -31.7 °F 75% 30.44 in - ENE 1.2 mph - N/A   Unknown
3:00 AM -27.2 °F - -33.2 °F 73% 30.46 in - ENE 1.2 mph - N/A   Unknown
4:00 AM -28.5 °F - -34.4 °F 73% 30.49 in - ENE 2.3 mph - N/A   Unknown
5:00 AM -28 °F - -34 °F 58% 30.49 in - East 1.2 mph - -  
5:00 AM -27.9 °F - -34.1 °F 73% 30.49 in - East 1.2 mph - N/A   Unknown
6:00 AM -27.2 °F - -33.2 °F 73% 30.48 in - ENE 2.3 mph - N/A   Unknown
7:00 AM -27.4 °F - -33.0 °F 75% 30.50 in - ENE 2.3 mph - N/A   Unknown
8:00 AM -28.1 °F - -34.2 °F 73% 30.51 in - ENE 2.3 mph - N/A   Unknown
9:00 AM -28.5 °F -40.4 °F -34.2 °F 74% 30.51 in - ENE 3.5 mph - N/A   Unknown
10:00 AM -28.1 °F - -34.2 °F 73% 30.53 in - ENE 2.3 mph - N/A   Unknown
11:00 AM -26 °F - -32 °F 58% 30.53 in - ENE 2.3 mph - -  
11:00 AM -26.0 °F - -32.1 °F 73% 30.53 in - ENE 2.3 mph - N/A   Unknown
12:00 PM -13.0 °F - -21.5 °F 66% 30.48 in - East 1.2 mph - N/A   Unknown
1:00 PM -11.2 °F - -17.7 °F 73% 30.47 in - South 1.2 mph - N/A   Unknown
2:00 PM -10.1 °F - -16.2 °F 74% 30.45 in - WSW 2.3 mph - N/A   Unknown
3:00 PM -13.0 °F - -18.8 °F 75% 30.47 in - Calm Calm - N/A   Unknown
4:00 PM -15.5 °F - -20.6 °F 78% 30.49 in - East 1.2 mph - N/A   Unknown
5:00 PM -17 °F - -23 °F 63% 30.51 in - East 2.3 mph - -  
5:00 PM -17.3 °F - -22.5 °F 77% 30.51 in - East 2.3 mph - N/A   Unknown
6:00 PM -18.9 °F - -23.1 °F 81% 30.53 in - NE 1.2 mph - N/A   Unknown
7:00 PM -16.1 °F -26.2 °F -19.8 °F 83% 30.55 in - East 3.5 mph - N/A   Unknown
8:00 PM -13.9 °F -26.1 °F -18.0 °F 82% 30.55 in - NE 4.6 mph - N/A   Unknown
9:00 PM -14.1 °F -28.3 °F -18.4 °F 81% 30.56 in - ENE 5.8 mph - N/A   Unknown
10:00 PM -15.0 °F -32.4 °F -19.7 °F 79% 30.56 in - ENE 8.1 mph - N/A   Unknown
11:00 PM -16 °F - -21 °F 66% 30.53 in - ENE 6.9 mph - -  
11:00 PM -16.2 °F -32.5 °F -21.1 °F 79% 30.53 in - ENE 6.9 mph - N/A   Unknown